Regional Weather Roundup
Issued by NWS

Home | Current Version | Previous Version | Text Only | Print | Product List | Glossary Off
Versions: 1 2 3 4 5 6 7 8 9 10 11 12 13 14 15 16 17 18 19 20 21 22 23 24 25 26 27 28

000
ASUS45 KBOU 282007
RWRCO

WEATHER ROUNDUP FOR COLORADO
NATIONAL WEATHER SERVICE DENVER/BOULDER CO
200 PM MDT TUE MAR 28 2017

NOTE: "FAIR" INDICATES FEW OR NO CLOUDS BELOW 12000 FEET WITH NO
SIGNIFICANT WEATHER AND/OR OBSTRUCTIONS TO VISIBILITY.

COZ001>005-013-030-031-282100-
...NORTHWEST COLORADO...

CITY           SKY/WX    TMP DP  RH WIND       PRES   REMARKS
CRAIG          LGT RAIN  43  38  82 SW6       29.93S
HAYDEN         CLOUDY    39  34  81 SW5       29.92S
MEEKER         LGT RAIN  41  37  86 NW7       29.93S
MOUNT WERNER   NOT AVBL
STEAMBOAT SPGS CLOUDY    36  34  93 W3        29.91F
WALDEN         NOT AVBL
$$

COZ006>008-011-282100-
...WEST CENTRAL VALLEYS...

CITY           SKY/WX    TMP DP  RH WIND       PRES   REMARKS
GRAND JUNCTION LGT RAIN  50  41  71 W12       29.91F
MONTROSE       CLOUDY    46  39  76 NW17      29.90F
EAGLE          PTSUNNY   48  34  57 CALM      29.87F
RIFLE          LGT RAIN  48  35  60 NW17      29.89S
DELTA          PTSUNNY   52  41  65 CALM      29.87F
NUCLA          CLOUDY    46  37  71 NW13      29.91F
$$

COZ017>023-064>068-282100-
...SOUTHWEST COLORADO...

CITY           SKY/WX    TMP DP  RH WIND       PRES   REMARKS
DURANGO        FAIR      48  30  49 SW12      29.80F
CORTEZ         PTSUNNY   50  40  68 W13       29.83F
PAGOSA SPRINGS CLOUDY    47  27  45 SW10      29.80F
TELLURIDE      CLOUDY    39  31  72 SW6       29.89F
WOLF CREEK PAS CLOUDY    27  23  86 N10       29.94S WCI  17
$$

COZ009-010-012-014-032>034-037-058>063-282100-
...CENTRAL COLORADO...

CITY           SKY/WX    TMP DP  RH WIND       PRES   REMARKS
ASPEN          LGT RAIN  42  35  76 N8        29.85F
BUENA VISTA    PTSUNNY   51  20  29 N10       29.78F
COPPER MTN     LGT SNOW  32  27  80 CALM      29.94S VSB 3/4
BERTHOUD PASS  CLOUDY    21  10  63 E14G21    29.95S HAZE    WCI   8
COTTONWOOD PAS CLOUDY    45  23  42 CALM      29.85F
GUNNISON       PTSUNNY   44  31  60 W13G18    29.84F
KREMMLING      CLOUDY    46  36  66 N10G23    29.88S
LEADVILLE      CLOUDY    39  20  46 N10       29.85F
MONARCH PASS   CLOUDY    28  23  80 CALM      30.02S
SALIDA         PTSUNNY   54  22  29 NE16G24   29.85S
SUNLIGHT       SNOW      28  27  93 W6        29.98S VSB<1/4 WCI  22
WILKERSON PASS CLOUDY    30  27  86 NE6       29.94S FOG     WCI  24
$$

COZ069>075-282100-
...SAN LUIS VALLEY/SANGRE DE CRISTO MOUNTAINS...

CITY           SKY/WX    TMP DP  RH WIND       PRES   REMARKS
ALAMOSA        FAIR      51  19  28 MISG      29.76F
LA VETA PASS   NOT AVBL
SAGUACHE       FAIR      50  23  34 S8        29.78F
$$

COZ035-036-038>040-282100-
...NORTHERN COLORADO FRONT RANGE...

CITY           SKY/WX    TMP DP  RH WIND       PRES   REMARKS
DENVER INTL AP CLOUDY    45  40  82 NW16      29.86R
DMNS CITY PARK   N/A     43  40  86 N13G18    29.87S
AURORA         NOT AVBL
FRONT RANGE AP CLOUDY    48  43  81 NW16      29.86S
ERIE MUNI ARPT CLOUDY    45  40  84 N15       29.89R
BOULDER MUN AP DRIZZLE   43  41  93 N12       29.89R
CENTENNIAL     CLOUDY    42  39  89 N14       29.87S
BROOMFIELD     DRIZZLE   43  39  87 N16       29.88S
FORT COLLINS   LGT RAIN  44  41  89 N16       29.90R
LONGMONT       CLOUDY    47  39  73 N12G20    29.91R
$$

COZ041-046-047-076>085-087-088-282100-
...PIKES PEAK/PALMER DIVIDE AND SOUTHERN FOOTHILLS...

CITY           SKY/WX    TMP DP  RH WIND       PRES   REMARKS
COLO. SPRINGS  PTSUNNY   49  35  58 N16       29.84S
A. F. ACADEMY  CLOUDY    44  37  79 NW18      29.85F
SCHRIEVER AFB  RAIN      43  41  93 NE10G20   29.85R
ELLICOTT         N/A    N/A N/A N/A E12       29.83S
FALCON         CLOUDY    46  35  66 N15       29.86S
FORT CARSON    LGT RAIN  44  39  83 E9        29.82S
LIMON          LGT RAIN  44  42  93 E5        29.85F
MONUMENT HILL  CLOUDY    36  36 100 N12       29.88F FOG
TRINIDAD       FAIR      55  37  50 E12       29.76F
$$

COZ042>045-048>051-090-091-282100-
...NORTHEAST COLORADO...

CITY           SKY/WX    TMP DP  RH WIND       PRES   REMARKS
GREELEY ARPT   CLOUDY    46  41  81 N12       29.89S
AKRON          LGT RAIN  45  43  93 SE14      29.87S FOG
BURLINGTON     LGT RAIN  45  44  97 SE15      29.89R
WRAY           LGT RAIN N/A N/A N/A SE15      29.91S
STERLING       RAIN      46  45  93 SE13G20   29.87F
HOLYOKE        LGT RAIN  46  43  87 E18       29.93R
FORT MORGAN    DRIZZLE   47  44  88 NE5       29.87S
$$

COZ086-089-092>099-282100-
...SOUTHEAST COLORADO...

CITY           SKY/WX    TMP DP  RH WIND       PRES   REMARKS
PUEBLO         CLOUDY    57  42  57 E12       29.77F
LA JUNTA       PTSUNNY   53  47  79 E16       29.79F
LAMAR          RAIN      47  45  93 E10       29.83F FOG
SPRINGFIELD      N/A     46  45  96 E17       29.80F
$$




USA.gov is the U.S. government's official web portal to all federal, state and local government web resources and services.